This demonstration page uses our WeatherBlox Daily Observations layout. Learn more.

Left ArrowRight Arrow

41.86663, -103.66717

Hourly Observations for March 30, 2018

Temp ( °F °C ) Dew Point ( °F °C ) Humidity (%) Winds ( mph kmh ) Pressure ( in mb ) Visibility ( mi km ) Precip ( " mm )
12:53 am 00:53 Clear 25 -3.9 22 -5.6 88 88 ESE 3 6 30.26 1025 10 16 N/A
1:53 am 01:53 Clear 24 -4.4 22 -5.6 91 91 NE 6 9 30.24 1024 10 16 N/A
2:53 am 02:53 Clear 24 -4.4 20 -6.7 84 84 E 5 7 30.22 1023 10 16 N/A
3:53 am 03:53 Clear 24 -4.4 21 -6.1 88 88 E 7 11 30.18 1022 10 16 N/A
4:53 am 04:53 Clear 25 -3.9 22 -5.6 88 88 E 5 7 30.17 1022 10 16 N/A
5:53 am 05:53 Clear 25 -3.9 22 -5.6 88 88 E 6 9 30.16 1021 10 16 N/A
6:53 am 06:53 Sunny 28 -2.2 26 -3.3 92 92 E 6 9 30.14 1021 10 16 N/A
7:53 am 07:53 Mostly Sunny 31 -0.6 27 -2.8 85 85 E 7 11 30.15 1021 10 16 N/A
8:53 am 08:53 Sunny 36 2.2 31 -0.6 82 82 E 6 9 30.13 1020 10 16 N/A
9:53 am 09:53 Mostly Sunny 44 6.7 29 -1.7 55 55 N N/A 30.09 1019 10 16 N/A
10:53 am 10:53 Sunny 51 10.6 29 -1.7 43 43 VRB 5 7 30.04 1017 10 16 N/A
11:53 am 11:53 Mostly Sunny 58 14.4 28 -2.2 32 32 W 17 28 29.97 1015 10 16 N/A
12:53 pm 12:53 Mostly Cloudy 59 15 27 -2.8 29 29 W 20 31 29.93 1014 10 16 N/A
1:53 pm 13:53 Cloudy 59 15 26 -3.3 28 28 W 23 37 29.90 1013 10 16 N/A
2:53 pm 14:53 Partly Cloudy 63 17.2 26 -3.3 25 25 W 25 41 29.86 1011 10 16 N/A
3:53 pm 15:53 Mostly Sunny 63 17.2 27 -2.8 26 26 W 25 41 29.83 1010 10 16 N/A
4:53 pm 16:53 Cloudy 62 16.7 27 -2.8 26 26 W 25 41 29.81 1009 10 16 N/A
5:53 pm 17:53 Sunny 60 15.6 27 -2.8 28 28 W 18 30 29.80 1009 10 16 N/A
6:53 pm 18:53 Sunny 57 13.9 28 -2.2 33 33 W 7 11 29.79 1009 10 16 N/A
7:53 pm 19:53 Clear 53 11.7 30 -1.1 41 41 W 9 15 29.79 1009 10 16 N/A
8:53 pm 20:53 Clear 56 13.3 28 -2.2 34 34 W 13 20 29.79 1009 10 16 N/A
9:53 pm 21:53 Clear 58 14.4 26 -3.3 29 29 W 23 37 29.78 1008 10 16 N/A
10:53 pm 22:53 Clear 56 13.3 27 -2.8 33 33 WNW 22 35 29.78 1008 10 16 N/A
11:23 pm 23:23 Clear 48 8.9 33 0.6 56 56 N 25 41 29.91 1013 10 16 N/A
11:53 pm 23:53 Clear 44 6.7 35 1.7 71 71 N 25 41 29.89 1012 10 16 N/A

Powered by AerisWeather